SM7GXQ Weather Reports


time (UTC)temp
F
wind
direction
speed
knots
gust
knots
rain 1hr
in
rain 24hr
in
rain mn
in
humidity
%
barometer
mb
20260506083005 51 75 3.5 11.3 0.00 0.00 0.00 51 1011.3
20260506081505 51 91 2.6 10.4 0.00 0.00 0.00 52 1011.3
20260506071504 50 85 6.1 10.4 0.00 0.00 0.00 51 1011.3
20260506040004 44 63 2.6 6.1 0.00 0.00 0.00 77 1010.9
20260506034504 44 66 3.5 7.8 0.00 0.00 0.00 77 1010.6
20260506033005 44 73 3.5 8.7 0.00 0.00 0.00 77 1010.3
20260506031505 44 68 2.6 12.2 0.00 0.00 0.00 78 1010.3
20260506030005 44 69 4.3 10.4 0.00 0.00 0.00 81 1010.3
20260506020004 44 86 2.6 10.4 0.00 0.00 0.00 92 1010.3
20260506014504 44 85 2.6 8.7 0.00 0.00 0.00 93 1010.2
20260506011504 43 79 2.6 7.0 0.00 0.00 0.00 94 1009.8
20260505234503 44 68 4.3 7.0 0.00 0.00 0.00 93 1009.2
20260505231504 43 71 5.2 8.7 0.00 0.00 0.00 93 1009.1
20260505230004 43 63 2.6 5.2 0.00 0.00 0.00 92 1009.1
20260505224504 43 56 1.7 2.6 0.00 0.00 0.00 91 1009.1
20260505221504 44 81 1.7 2.6 0.00 0.00 0.00 91 1009.1
20260505214504 44 50 0.0 2.6 0.00 0.00 0.00 91 1008.7
20260505213005 44 98 0.9 2.6 0.00 0.00 0.00 90 1008.7
20260505211504 45 84 0.9 1.7 0.00 0.00 0.00 89 1008.7
20260505210005 45 47 0.0 2.6 0.00 0.00 0.00 89 1008.4
20260505204504 45 58 0.9 5.2 0.00 0.00 0.00 88 1008.4
20260505201504 46 100 1.7 5.2 0.00 0.00 0.00 86 1008.3
20260505193005 49 107 0.9 6.1 0.00 0.00 0.00 79 1007.9
20260505184503 53 107 1.7 6.1 0.00 0.00 0.00 69 1007.7
20260505181503 55 86 2.6 7.0 0.00 0.00 0.00 64 1007.7
20260505180003 55 123 1.7 7.0 0.00 0.00 0.00 62 1007.6
20260505173004 57 90 2.6 8.7 0.00 0.00 0.00 60 1007.5
20260505171503 57 85 4.3 7.0 0.00 0.00 0.00 57 1007.4
20260505170004 58 76 5.2 10.4 0.00 0.00 0.00 55 1007.3
20260505163004 58 133 2.6 7.8 0.00 0.00 0.00 54 1007.4
20260505161503 58 70 4.3 10.4 0.00 0.00 0.00 51 1007.4
20260505124504 62 191 2.6 7.8 0.00 0.00 0.00 56 1007.5
20260505120005 60 220 3.5 10.4 0.00 0.00 0.00 56 1007.5
20260505114503 60 209 3.5 10.4 0.00 0.00 0.00 59 1007.5
20260505091503 57 262 2.6 6.1 0.00 0.00 0.00 61 1008.0
20260505090004 56 265 2.6 7.0 0.00 0.00 0.00 66 1007.9